Date,TemperatureHighF,TemperatureAvgF,TemperatureLowF,DewpointHighF,DewpointAvgF,DewpointLowF,HumidityHigh,HumidityAvg,HumidityLow,PressureMaxIn,PressureMinIn,WindSpeedMaxMPH,WindSpeedAvgMPH,GustSpeedMaxMPH,PrecipitationSumIn
2013-8-1,88.4,84.1,80.9,76.8,75.0,73.6,81,74,65,30.06,29.94,8,4,14,0.00
2013-8-2,90.3,81.8,74.5,78.1,74.8,70.3,94,80,58,30.06,29.92,9,2,13,0.39
2013-8-3,86.9,78.5,74.6,79.0,75.3,71.9,95,90,73,30.13,30.02,6,1,18,0.57
2013-8-4,90.7,81.9,76.2,78.7,76.0,73.0,95,84,65,30.12,29.98,8,1,12,0.18
2013-8-5,89.3,81.7,77.2,79.9,75.9,71.7,94,83,69,30.05,29.95,7,1,11,0.00
2013-8-6,89.5,82.6,76.7,78.7,75.9,72.7,93,81,69,29.99,29.89,7,2,11,0.00
2013-8-7,87.9,83.3,78.7,77.9,76.1,73.3,90,79,70,29.99,29.90,9,2,16,0.00
2013-8-8,89.3,84.8,81.0,78.0,76.0,72.6,85,75,65,30.02,29.92,9,4,16,0.03
2013-8-9,87.0,82.8,80.1,77.5,74.5,71.0,81,76,70,30.06,29.95,11,4,16,0.09
2013-8-10,89.5,84.9,81.8,78.0,76.6,74.8,83,76,66,30.12,30.03,8,4,14,0.00
2013-8-11,89.0,85.2,82.4,78.6,76.9,75.4,82,77,70,30.14,30.06,7,3,14,0.00
2013-8-12,88.8,84.7,81.4,77.5,75.6,72.4,81,74,64,30.11,30.01,7,2,14,0.00
2013-8-13,88.9,84.9,81.7,77.7,76.2,73.5,86,75,65,30.05,29.96,7,2,14,0.00
2013-8-14,89.0,85.0,81.8,77.7,75.8,74.1,81,74,66,30.03,29.93,10,3,17,0.00
2013-8-15,85.2,81.9,76.7,77.6,76.2,72.8,90,83,73,30.06,29.96,6,1,11,0.00
2013-8-16,89.4,84.2,79.1,79.5,77.9,75.7,92,82,71,30.06,29.98,6,2,11,0.07
2013-8-17,89.5,85.4,83.0,80.1,77.9,76.1,86,79,69,30.08,30.00,9,3,15,0.03
2013-8-18,89.3,85.0,80.5,79.8,77.3,74.9,85,78,68,30.08,29.99,11,4,16,0.06
2013-8-19,89.8,84.5,78.9,79.1,77.2,74.9,93,79,68,30.08,29.96,9,3,15,0.00
2013-8-20,88.8,84.8,81.4,77.9,76.5,74.5,84,76,68,30.06,29.98,9,3,14,0.00
2013-8-21,88.9,84.1,80.6,80.1,77.7,74.5,89,81,72,30.07,29.99,9,4,16,0.29
2013-8-22,88.3,84.6,78.1,79.6,77.6,73.1,92,80,72,30.08,29.95,9,4,15,0.19
2013-8-23,89.0,84.5,82.3,78.1,76.6,74.5,83,77,68,30.02,29.93,8,2,13,0.00
2013-8-24,89.1,84.9,81.1,78.6,76.8,74.6,86,77,68,30.11,29.97,7,2,15,0.01
2013-8-25,85.1,81.9,76.4,77.5,75.6,72.6,92,82,73,30.16,30.03,5,1,10,0.15
2013-8-26,87.6,82.4,79.6,77.5,74.6,72.1,83,77,70,30.12,30.01,11,1,15,0.00
2013-8-27,86.8,80.3,76.0,75.9,73.5,71.4,91,80,67,30.05,29.97,4,0,11,0.01
2013-8-28,86.7,81.4,74.4,76.5,74.5,70.0,93,80,66,30.06,29.95,5,1,11,0.77
2013-8-29,87.8,82.8,75.5,78.5,75.9,73.0,93,80,69,30.02,29.93,6,1,14,0.00
2013-8-30,88.7,83.2,76.7,77.1,74.8,70.8,92,77,60,30.01,29.90,9,2,18,0.00
2013-8-31,88.1,80.3,75.0,78.2,74.4,69.5,93,83,69,29.99,29.92,7,1,15,0.03